GW2630 Weather Reports


Display with metric or nautical units.
time (UTC)temp
F
wind
direction
speed
MPH
gust
MPH
rain 1hr
in
rain 24hr
in
rain mn
in
humidity
%
barometer
mb
20260506172543 68 211 4.0 6.0 0.00 0.00 0.00 76 1008.7
20260506172034 68 211 6.0 8.0 0.00 0.00 0.00 75 1008.2
20260506171531 68 175 3.0 6.0 0.00 0.00 0.00 75 1008.4
20260506171029 68 261 5.0 7.0 0.00 0.00 0.00 75 1008.5
20260506170526 69 183 6.0 8.0 0.00 0.00 0.00 75 1008.6
20260506170023 70 206 8.0 10.0 0.00 0.00 0.00 73 1008.7
20260506165521 70 215 2.0 2.0 0.00 0.00 0.00 74 1008.8
20260506165012 69 167 4.0 8.0 0.00 0.00 0.00 78 1008.7
20260506164509 68 260 1.0 2.0 0.00 0.00 0.00 77 1009.0
20260506164007 69 193 1.0 3.0 0.00 0.00 0.00 75 1008.7
20260506163502 69 232 6.0 10.0 0.00 0.00 0.00 72 1008.8
20260506162956 69 191 1.0 1.0 0.00 0.00 0.00 74 1009.0
20260506162454 69 186 3.0 4.0 0.00 0.00 0.00 72 1009.4
20260506161945 69 153 0.0 0.0 0.00 0.00 0.00 73 1009.5
20260506161443 69 140 2.0 3.0 0.00 0.00 0.00 72 1009.8
20260506160935 69 214 1.0 1.0 0.00 0.00 0.00 72 1009.8
20260506160432 69 129 1.0 2.0 0.00 0.00 0.00 72 1009.7
20260506155929 69 202 2.0 2.0 0.00 0.00 0.00 71 1009.8
20260506155426 69 184 1.0 1.0 0.00 0.00 0.00 71 1009.7
20260506153548 69 135 2.0 4.0 0.00 0.00 0.00 68 1009.7
20260506153046 69 232 3.0 4.0 0.00 0.00 0.00 66 1009.9
20260506152542 69 348 4.0 4.0 0.00 0.00 0.00 66 1009.8
20260506152041 69 232 1.0 2.0 0.00 0.00 0.00 66 1009.8
20260506151538 69 224 6.0 8.0 0.00 0.00 0.00 65 1009.8
20260506151035 70 328 2.0 3.0 0.00 0.00 0.00 66 1009.8
20260506150531 70 194 3.0 3.0 0.00 0.00 0.00 66 1009.8
20260506150029 70 233 4.0 7.0 0.00 0.00 0.00 65 1009.8
20260506145525 69 197 2.0 3.0 0.00 0.00 0.00 66 1009.7
20260506145023 69 209 3.0 4.0 0.00 0.00 0.00 65 1009.9
20260506144519 69 183 3.0 6.0 0.00 0.00 0.00 64 1009.7
20260506144017 69 164 2.0 2.0 0.00 0.00 0.00 65 1009.8
20260506143514 69 249 4.0 6.0 0.00 0.00 0.00 64 1009.9
20260506143013 70 260 2.0 3.0 0.00 0.00 0.00 65 1010.0
20260506142510 70 119 1.0 2.0 0.00 0.00 0.00 64 1009.9
20260506142008 70 206 5.0 8.0 0.00 0.00 0.00 63 1009.7
20260506141506 71 191 10.0 14.0 0.00 0.00 0.00 63 1010.0
20260506141004 71 224 3.0 4.0 0.00 0.00 0.00 63 1010.0
20260506140501 70 44 5.0 9.0 0.00 0.00 0.00 64 1009.8
20260506135957 70 189 4.0 4.0 0.00 0.00 0.00 64 1009.8
20260506135455 69 294 2.0 3.0 0.00 0.00 0.00 65 1009.7
20260506134950 69 137 3.0 4.0 0.00 0.00 0.00 65 1009.7
20260506134446 69 208 1.0 2.0 0.00 0.00 0.00 66 1009.8
20260506133943 69 232 4.0 4.0 0.00 0.00 0.00 65 1009.8
20260506133441 70 208 1.0 1.0 0.00 0.00 0.00 67 1009.6
20260506132937 70 184 9.0 13.0 0.00 0.00 0.00 65 1009.7
20260506132434 70 212 2.0 2.0 0.00 0.00 0.00 65 1009.6
20260506131932 70 203 3.0 3.0 0.00 0.00 0.00 65 1009.8
20260506131428 70 202 2.0 2.0 0.00 0.00 0.00 65 1009.9
20260506130925 71 199 8.0 11.0 0.00 0.00 0.00 64 1009.9
20260506130421 71 192 11.0 16.0 0.00 0.00 0.00 63 1009.9
20260506125920 71 212 4.0 4.0 0.00 0.00 0.00 65 1009.9
20260506125418 71 235 6.0 9.0 0.00 0.00 0.00 65 1010.0
20260506124916 69 258 3.0 4.0 0.00 0.00 0.00 67 1009.8
20260506124413 68 249 5.0 8.0 0.00 0.00 0.00 68 1010.0
20260506123911 69 158 5.0 8.0 0.00 0.00 0.00 68 1009.9
20260506123408 69 269 4.0 4.0 0.00 0.00 0.00 69 1010.0
20260506122906 68 173 8.0 11.0 0.00 0.00 0.00 70 1010.0
20260506122402 68 215 3.0 6.0 0.00 0.00 0.00 70 1010.0
20260506121901 68 197 6.0 9.0 0.00 0.00 0.00 70 1010.1
20260506121357 67 183 2.0 4.0 0.00 0.00 0.00 71 1010.2
20260506120854 66 230 2.0 2.0 0.00 0.00 0.00 73 1010.1
20260506120352 66 167 3.0 6.0 0.00 0.00 0.00 73 1010.1
20260506115849 66 222 4.0 6.0 0.00 0.00 0.00 73 1010.1
20260506115347 66 241 4.0 4.0 0.00 0.00 0.00 74 1010.2
20260506114845 66 183 4.0 6.0 0.00 0.00 0.00 74 1010.2
20260506114342 66 175 4.0 6.0 0.00 0.00 0.00 74 1010.2
20260506113841 65 212 7.0 9.0 0.00 0.00 0.00 75 1010.3
20260506113338 66 200 3.0 4.0 0.00 0.00 0.00 75 1010.2
20260506112834 66 195 4.0 6.0 0.00 0.00 0.00 75 1010.3
20260506112332 65 204 4.0 6.0 0.00 0.00 0.00 75 1010.1
20260506111829 65 209 2.0 4.0 0.00 0.00 0.00 75 1010.3
20260506111328 65 205 9.0 10.0 0.00 0.00 0.00 75 1010.5
20260506110825 65 207 7.0 9.0 0.00 0.00 0.00 75 1010.3
20260506110321 64 182 6.0 7.0 0.00 0.00 0.00 76 1010.4
20260506105818 64 231 6.0 9.0 0.00 0.00 0.00 77 1010.4
20260506105315 64 182 4.0 7.0 0.00 0.00 0.00 77 1010.3
20260506104812 64 232 4.0 6.0 0.00 0.00 0.00 77 1010.3
20260506104310 64 265 3.0 7.0 0.00 0.00 0.00 77 1010.2
20260506103807 64 190 5.0 9.0 0.00 0.00 0.00 78 1010.2
20260506103305 64 190 6.0 8.0 0.00 0.00 0.00 78 1010.4
20260506102802 64 167 6.0 8.0 0.00 0.00 0.00 79 1010.3
20260506102300 63 179 5.0 8.0 0.00 0.00 0.00 79 1010.5
20260506101757 63 202 9.0 10.0 0.00 0.00 0.00 80 1010.3
20260506101253 63 225 9.0 11.0 0.00 0.00 0.00 80 1010.3
20260506100751 63 189 1.0 2.0 0.00 0.00 0.00 80 1010.1
20260506100249 63 157 8.0 10.0 0.00 0.00 0.00 81 1010.1
20260506095747 63 103 2.0 2.0 0.00 0.00 0.00 81 1010.1
20260506095244 63 201 7.0 8.0 0.00 0.00 0.00 81 1010.3
20260506094740 63 208 5.0 7.0 0.00 0.00 0.00 81 1010.2
20260506094239 63 263 4.0 6.0 0.00 0.00 0.00 81 1010.2
20260506093737 63 197 9.0 9.0 0.00 0.00 0.00 81 1010.2
20260506093234 63 228 5.0 7.0 0.00 0.00 0.00 81 1010.1
20260506092732 63 229 2.0 2.0 0.00 0.00 0.00 82 1009.9
20260506092230 63 209 2.0 3.0 0.00 0.00 0.00 81 1010.0
20260506091726 63 210 4.0 8.0 0.00 0.00 0.00 81 1009.9
20260506091224 63 196 5.0 7.0 0.00 0.00 0.00 81 1010.1
20260506090721 63 218 4.0 6.0 0.00 0.00 0.00 81 1010.3
20260506090218 63 190 2.0 3.0 0.00 0.00 0.00 81 1010.1
20260506085710 63 184 3.0 3.0 0.00 0.00 0.00 81 1010.1
20260506085206 63 227 3.0 3.0 0.00 0.00 0.00 82 1010.2
20260506084702 64 171 4.0 6.0 0.00 0.00 0.00 81 1010.2
20260506084159 64 207 4.0 6.0 0.00 0.00 0.00 81 1010.4
20260506083655 64 225 4.0 6.0 0.00 0.00 0.00 81 1010.4
20260506083154 64 208 3.0 6.0 0.00 0.00 0.00 81 1010.3
20260506082650 64 212 2.0 3.0 0.00 0.00 0.00 81 1010.5
20260506082145 64 203 5.0 8.0 0.00 0.00 0.00 81 1010.4
20260506081643 64 190 2.0 3.0 0.00 0.00 0.00 82 1010.4
20260506081141 64 197 2.0 3.0 0.00 0.00 0.00 81 1010.6
20260506080639 64 237 1.0 2.0 0.00 0.00 0.00 81 1010.6
20260506080135 64 204 2.0 3.0 0.00 0.00 0.00 81 1010.4
20260506073119 64 203 1.0 1.0 0.00 0.00 0.00 81 1010.5
20260506072615 64 200 2.0 3.0 0.00 0.00 0.00 80 1010.4
20260506072114 64 212 3.0 4.0 0.00 0.00 0.00 80 1010.6
20260506071611 64 182 3.0 4.0 0.00 0.00 0.00 80 1010.4
20260506071108 64 181 2.0 2.0 0.00 0.00 0.00 80 1010.5
20260506070605 65 208 2.0 3.0 0.00 0.00 0.00 80 1010.5
20260506062039 65 229 5.0 8.0 0.00 0.00 0.00 79 1010.5
20260506061535 65 192 2.0 2.0 0.00 0.00 0.00 78 1010.8
20260506061033 65 189 6.0 11.0 0.00 0.00 0.00 78 1010.4
20260506060531 66 232 5.0 7.0 0.00 0.00 0.00 78 1010.8
20260506051000 67 222 1.0 1.0 0.00 0.00 0.00 75 1010.7
20260506050458 67 215 5.0 8.0 0.00 0.00 0.00 75 1010.9
20260506044948 67 215 2.0 4.0 0.00 0.00 0.00 74 1011.0
20260506044446 67 202 5.0 8.0 0.00 0.00 0.00 74 1010.8
20260506043943 67 244 3.0 6.0 0.00 0.00 0.00 74 1011.0
20260506043440 67 232 4.0 6.0 0.00 0.00 0.00 74 1011.2
20260506042938 67 207 7.0 9.0 0.00 0.00 0.00 74 1011.2
20260506042437 67 220 2.0 3.0 0.00 0.00 0.00 74 1011.1
20260506041935 67 211 3.0 4.0 0.00 0.00 0.00 73 1011.0
20260506041432 67 205 5.0 8.0 0.00 0.00 0.00 73 1011.0
20260506040929 67 198 7.0 9.0 0.00 0.00 0.00 73 1011.2
20260506040427 67 193 1.0 1.0 0.00 0.00 0.00 72 1011.1
20260506035923 67 204 4.0 7.0 0.00 0.00 0.00 72 1011.0
20260506035421 67 189 4.0 6.0 0.00 0.00 0.00 72 1011.0
20260506034917 67 206 3.0 4.0 0.00 0.00 0.00 72 1010.9
20260506034414 67 237 5.0 7.0 0.00 0.00 0.00 72 1011.0
20260506033911 68 191 6.0 7.0 0.00 0.00 0.00 72 1011.1
20260506033409 68 221 2.0 2.0 0.00 0.00 0.00 70 1011.0
20260506032905 68 230 8.0 13.0 0.00 0.00 0.00 70 1011.1
20260506032402 68 206 4.0 6.0 0.00 0.00 0.00 70 1010.9
20260506031859 68 221 8.0 8.0 0.00 0.00 0.00 70 1011.0
20260506031356 68 193 2.0 3.0 0.00 0.00 0.00 69 1010.9
20260506030854 68 179 6.0 7.0 0.00 0.00 0.00 69 1011.1
20260506030352 68 193 8.0 10.0 0.00 0.00 0.00 69 1011.0
20260506025848 68 189 9.0 11.0 0.00 0.00 0.00 69 1011.3
20260506025344 68 229 6.0 7.0 0.00 0.00 0.00 68 1011.1
20260506024842 68 212 5.0 7.0 0.00 0.00 0.00 68 1011.1
20260506024338 69 208 4.0 6.0 0.00 0.00 0.00 67 1011.0
20260506023835 69 192 10.0 14.0 0.00 0.00 0.00 67 1011.0
20260506023331 69 190 4.0 8.0 0.00 0.00 0.00 66 1011.1
20260506022828 69 162 3.0 4.0 0.00 0.00 0.00 66 1011.3
20260506022326 69 191 5.0 7.0 0.00 0.00 0.00 64 1011.2
20260506021824 69 190 4.0 6.0 0.00 0.00 0.00 64 1011.0
20260506021321 69 191 3.0 4.0 0.00 0.00 0.00 64 1011.1
20260506020817 69 203 4.0 6.0 0.00 0.00 0.00 63 1011.0
20260506020315 70 217 7.0 9.0 0.00 0.00 0.00 62 1010.8
20260506015813 70 202 8.0 10.0 0.00 0.00 0.00 62 1010.9
20260506015310 70 194 2.0 3.0 0.00 0.00 0.00 61 1010.8
20260506014806 70 191 4.0 7.0 0.00 0.00 0.00 61 1010.9
20260506014303 70 182 4.0 6.0 0.00 0.00 0.00 61 1010.8
20260506013800 70 193 2.0 4.0 0.00 0.00 0.00 60 1010.9
20260506013257 70 207 5.0 7.0 0.00 0.00 0.00 59 1010.7
20260506012754 70 210 4.0 8.0 0.00 0.00 0.00 59 1010.7
20260506012251 71 196 3.0 3.0 0.00 0.00 0.00 60 1010.6
20260506011748 71 221 5.0 7.0 0.00 0.00 0.00 59 1010.7
20260506011244 71 197 2.0 3.0 0.00 0.00 0.00 59 1010.5
20260506010743 71 164 6.0 7.0 0.00 0.00 0.00 58 1010.6
20260506010240 71 168 3.0 4.0 0.00 0.00 0.00 59 1010.8
20260506005737 71 190 4.0 6.0 0.00 0.00 0.00 58 1010.4
20260506005233 71 162 7.0 9.0 0.00 0.00 0.00 58 1010.5
20260506004729 71 219 3.0 3.0 0.00 0.00 0.00 58 1010.6
20260506004227 71 228 5.0 8.0 0.00 0.00 0.00 58 1010.2
20260506003723 72 190 4.0 6.0 0.00 0.00 0.00 58 1010.1
20260506003220 72 210 6.0 8.0 0.00 0.00 0.00 58 1010.2
20260506002715 72 177 9.0 13.0 0.00 0.00 0.00 59 1010.0
20260506002212 72 194 6.0 7.0 0.00 0.00 0.00 58 1009.9
20260506001708 72 162 5.0 7.0 0.00 0.00 0.00 58 1010.3
20260506001206 73 178 3.0 4.0 0.00 0.00 0.00 57 1009.9
20260506000702 73 212 9.0 10.0 0.00 0.00 0.00 56 1010.0
20260506000200 73 179 11.0 17.0 0.00 0.00 0.00 55 1010.0
20260505235657 73 176 4.0 7.0 0.00 0.00 0.00 54 1010.0
20260505235155 73 238 6.0 9.0 0.00 0.00 0.00 54 1009.8
20260505234651 74 259 8.0 10.0 0.00 0.00 0.00 53 1009.9
20260505234149 74 187 2.0 3.0 0.00 0.00 0.00 52 1009.9
20260505233645 74 238 6.0 9.0 0.00 0.00 0.00 50 1010.0
20260505233143 75 222 4.0 6.0 0.00 0.00 0.00 49 1009.4
20260505232640 75 177 3.0 4.0 0.00 0.00 0.00 48 1009.5
20260505232138 76 219 4.0 6.0 0.00 0.00 0.00 47 1009.6
20260505231634 76 215 2.0 4.0 0.00 0.00 0.00 46 1009.4
20260505231133 77 177 4.0 6.0 0.00 0.00 0.00 45 1009.2
20260505230631 77 218 6.0 8.0 0.00 0.00 0.00 44 1009.2
20260505230127 78 174 5.0 6.0 0.00 0.00 0.00 42 1009.1
20260505225623 78 221 4.0 6.0 0.00 0.00 0.00 40 1009.3
20260505225120 79 206 1.0 2.0 0.00 0.00 0.00 40 1009.1
20260505224616 79 194 6.0 9.0 0.00 0.00 0.00 40 1009.2
20260505224114 79 250 5.0 8.0 0.00 0.00 0.00 39 1009.2
20260505223611 79 186 10.0 11.0 0.00 0.00 0.00 39 1009.0
20260505223107 79 189 8.0 11.0 0.00 0.00 0.00 39 1009.1
20260505222604 80 179 4.0 6.0 0.00 0.00 0.00 39 1009.2
20260505222100 79 179 11.0 16.0 0.00 0.00 0.00 39 1009.2
20260505221557 80 210 5.0 8.0 0.00 0.00 0.00 40 1008.9
20260505221053 80 217 3.0 3.0 0.00 0.00 0.00 40 1009.0
20260505220551 80 213 3.0 3.0 0.00 0.00 0.00 39 1009.2
20260505220048 80 182 6.0 10.0 0.00 0.00 0.00 37 1009.1
20260505215546 80 172 6.0 8.0 0.00 0.00 0.00 37 1008.8
20260505215044 81 149 7.0 9.0 0.00 0.00 0.00 37 1008.9
20260505214542 81 207 7.0 9.0 0.00 0.00 0.00 37 1009.0
20260505214038 81 180 2.0 2.0 0.00 0.00 0.00 36 1008.8
20260505213536 82 161 4.0 6.0 0.00 0.00 0.00 37 1008.6
20260505213032 82 171 2.0 2.0 0.00 0.00 0.00 37 1008.8
20260505212529 82 194 2.0 7.0 0.00 0.00 0.00 36 1008.7
20260505212026 82 239 5.0 8.0 0.00 0.00 0.00 37 1008.3
20260505211523 82 189 5.0 7.0 0.00 0.00 0.00 36 1008.3
20260505211020 82 246 5.0 9.0 0.00 0.00 0.00 36 1008.6
20260505210516 82 114 4.0 8.0 0.00 0.00 0.00 35 1008.4
20260505210014 82 238 2.0 6.0 0.00 0.00 0.00 35 1008.4
20260505205512 83 178 12.0 16.0 0.00 0.00 0.00 35 1008.6
20260505205009 83 264 5.0 7.0 0.00 0.00 0.00 35 1008.5
20260505204506 83 222 4.0 4.0 0.00 0.00 0.00 35 1008.5
20260505204003 83 174 1.0 1.0 0.00 0.00 0.00 37 1008.4
20260505203459 83 305 4.0 8.0 0.00 0.00 0.00 36 1008.5
20260505202956 83 210 3.0 6.0 0.00 0.00 0.00 35 1008.3
20260505202453 83 198 8.0 14.0 0.00 0.00 0.00 35 1008.3
20260505201949 83 247 7.0 10.0 0.00 0.00 0.00 34 1008.3
20260505201446 83 228 5.0 7.0 0.00 0.00 0.00 34 1008.2
20260505200944 84 227 2.0 3.0 0.00 0.00 0.00 35 1008.6
20260505200441 84 243 6.0 10.0 0.00 0.00 0.00 34 1008.4
20260505195937 83 170 5.0 7.0 0.00 0.00 0.00 36 1008.3
20260505195434 83 225 7.0 10.0 0.00 0.00 0.00 36 1008.4
20260505194931 83 255 10.0 14.0 0.00 0.00 0.00 35 1008.6
20260505194429 84 338 4.0 7.0 0.00 0.00 0.00 37 1008.7
20260505193928 83 215 10.0 11.0 0.00 0.00 0.00 36 1008.8
20260505193426 83 232 4.0 6.0 0.00 0.00 0.00 36 1009.0
20260505192924 83 256 6.0 8.0 0.00 0.00 0.00 36 1008.7
20260505192422 83 284 6.0 9.0 0.00 0.00 0.00 36 1008.7
20260505191919 83 193 14.0 18.0 0.00 0.00 0.00 36 1008.8
20260505191418 83 300 3.0 6.0 0.00 0.00 0.00 37 1009.0
20260505190915 83 50 3.0 4.0 0.00 0.00 0.00 38 1009.0
20260505190410 83 213 2.0 3.0 0.00 0.00 0.00 40 1009.2
20260505185905 83 213 6.0 14.0 0.00 0.00 0.00 37 1009.2
20260505185403 83 198 6.0 8.0 0.00 0.00 0.00 37 1009.1
20260505184858 83 294 3.0 3.0 0.00 0.00 0.00 39 1009.4
20260505184356 83 244 3.0 6.0 0.00 0.00 0.00 37 1009.6
20260505183852 84 190 2.0 7.0 0.00 0.00 0.00 40 1009.3
20260505183349 83 197 2.0 3.0 0.00 0.00 0.00 38 1009.5
20260505182846 82 307 3.0 6.0 0.00 0.00 0.00 39 1009.8
20260505182343 82 244 7.0 10.0 0.00 0.00 0.00 39 1009.8
20260505181840 83 253 4.0 8.0 0.00 0.00 0.00 39 1009.7
20260505181337 83 181 5.0 8.0 0.00 0.00 0.00 42 1009.6
20260505180833 83 165 2.0 2.0 0.00 0.00 0.00 40 1009.7
20260505180330 82 198 7.0 9.0 0.00 0.00 0.00 45 1009.8
20260505175826 82 212 6.0 8.0 0.00 0.00 0.00 41 1009.9
20260505175323 83 227 5.0 8.0 0.00 0.00 0.00 40 1009.6
20260505174819 83 194 2.0 3.0 0.00 0.00 0.00 42 1010.2
20260505174317 83 257 3.0 4.0 0.00 0.00 0.00 41 1010.0
20260505173813 82 207 1.0 2.0 0.00 0.00 0.00 44 1010.0
20260505173309 83 176 4.0 7.0 0.00 0.00 0.00 41 1010.2
20260505172807 83 271 5.0 7.0 0.00 0.00 0.00 40 1010.2